WILDBLUE-1

Last updated on Wed Sep 17 2025 00:02:46 GMT+0000 (Coordinated Universal Time)

1 29643U 06054A 25259.56163191 -.00000068 00000+0 00000+0 0 9997 2 29643 2.0921 84.0124 0001527 104.5923 258.1475 1.00270917 51058
UTC large
Height (km)
Speed (km/s)
/
Latitude / Longitude
Inclination (degrees)
Orbital Period (minutes)
Azimuth
Elevation
Range (km)
Doppler Factor

Next 0 passes for location: London (51.5072 / 0.1276)

Sorry there are no passes over London.